Regional Weather Roundup
Issued by NWS

Home | Current Version | Previous Version | Text Only | Print | Product List | Glossary Off
Versions: 1 2 3 4 5 6 7 8 9 10 11 12 13 14 15 16 17 18 19 20 21 22 23 24 25 26 27 28 29 30 31 32 33 34 35 36 37 38 39 40 41 42 43 44 45 46 47 48 49 50

000
ASUS43 KLSX 302207
RWRMO

WEATHER SUMMARY FOR MISSOURI
NATIONAL WEATHER SERVICE SPRINGFIELD MO
500 PM CDT THU JUL 30 2015

NOTE: "FAIR" INDICATES FEW OR NO CLOUDS BELOW 12,000 FEET WITH NO
       SIGNIFICANT WEATHER AND/OR OBSTRUCTIONS TO VISIBILITY.
       CURRENT SKY AND/OR WEATHER CONDITIONS ARE NOT AVAILABLE FOR
       CHILLICOTHE AND FARMINGTON.

MOZ001>031-035>038-043-044-053-054-302300-
...NORTHERN AND WESTERN MISSOURI...

CITY           SKY/WX    TMP DP  RH WIND       PRES   REMARKS
KANSAS CTY INT PTSUNNY   83  63  50 W5        30.16F
KANSAS C DTWN  PTSUNNY   88  56  33 SW5       30.14F
LEE`S SUMMIT   PTSUNNY   85  61  44 W5        30.17F
ST JOSEPH      SUNNY     85  62  46 SW5       30.15F
CHILLICOTHE      N/A     88  66  48 VRB6      30.16F HX  90
KIRKSVILLE     SUNNY     87  62  43 W10       30.15F

$$
MOZ066>068-077>081-088>096-101>105-302300-
...SOUTHWEST MISSOURI...

CITY           SKY/WX    TMP DP  RH WIND       PRES   REMARKS
SPRINGFIELD    PTSUNNY   85  57  38 N8        30.15F
JOPLIN         PTSUNNY   87  61  41 E8        30.14F

$$
MOZ032>034-039>042-045>050-055>058-069>072-302300-
...CENTRAL MISSOURI...

CITY           SKY/WX    TMP DP  RH WIND       PRES   REMARKS
COLUMBIA       CLOUDY    86  62  44 W5        30.15F
JEFFERSON CITY CLOUDY    88  57  34 E3        30.13F
ROLLA          CLOUDY    84  58  40 NE3       30.15F
SEDALIA        PTSUNNY   88  55  32 CALM      30.17F
WARRENSBURG    PTSUNNY   82  64  54 W3        30.15F
OSAGE BEACH    CLOUDY    82  64  54 CALM      30.16F

$$
MOZ051-052-059>065-302300-
...EAST CENTRAL MISSOURI...

CITY           SKY/WX    TMP DP  RH WIND       PRES   REMARKS
ST LOUIS INTL  PTSUNNY   90  60  36 NW8       30.12F
SPIRIT OF STL  MOSUNNY   88  62  41 W5        30.11F
ST CHARLES     PTSUNNY   88  61  40 NW10      30.11F

$$
MOZ072>076-082>087-097>100-106>115-302300-
...SOUTH CENTRAL AND SOUTHEAST MISSOURI...

CITY           SKY/WX    TMP DP  RH WIND       PRES   REMARKS
CAPE GIRARDEAU NOT AVBL
FARMINGTON     PTSUNNY   84  57  39 NE6       30.17F
POPLAR BLUFF   SUNNY     87  63  44 N9        30.08F
WEST PLAINS    MOSUNNY   86  58  38 NE3       30.17S

$$


USA.gov is the U.S. government's official web portal to all federal, state and local government web resources and services.